Regional Weather Roundup
Issued by NWS Upton, NY

Current Version | Previous Version | Graphics & Text | Print | Product List | Glossary Off
Versions: 1 2 3 4 5 6 7 8 9 10 11 12 13 14 15 16 17 18 19 20 21 22 23 24 25 26 27 28 29 30
000 ASUS41 KOKX 160808 RWROKX REGIONAL WEATHER ROUNDUP NATIONAL WEATHER SERVICE NEW YORK NY 300 AM EST SAT DEC 16 2017 NOTE: "FAIR" INDICATES FEW OR NO CLOUDS BELOW 12,000 FEET WITH NO SIGNIFICANT WEATHER AND/OR OBSTRUCTIONS TO VISIBILITY. NYZ071-072-176-178-NJZ106-104-160900- NEW YORK CITY METRO AREA CITY SKY/WX TMP DP RH WIND PRES REMARKS Central Park CLEAR 24 17 74 W9G21 29.96R WCI 14 Bronx Bot Gard N/A 27 18 69 NW5 29.95R WCI 21 Bronx Lehman C N/A 27 18 69 W9 N/A WCI 17 LaGuardia APRT PTCLDY 27 18 69 W16G25 29.94R WCI 15 Queens College N/A 27 19 74 W13 N/A WCI 16 Kennedy INTL PTCLDY 25 19 78 W15 29.97R WCI 13 Breezy Point N/A N/A N/A N/A W16G25 N/A Brooklyn Coll N/A 27 21 80 W13 N/A WCI 16 Staten Island N/A 23 19 86 W3 N/A Newark/Liberty PTCLDY 23 18 81 W12 29.96R WCI 12 Teterboro CLEAR 21 15 78 S6 29.95R WCI 13 $$ NYZ177-179-078>081-160900- LONG ISLAND NEW YORK CITY SKY/WX TMP DP RH WIND PRES REMARKS Jones Beach N/A N/A N/A N/A W15G22 N/A Wantagh N/A 27 19 74 W9 N/A WCI 17 Matinecock PT N/A N/A N/A N/A W23 N/A Farmingdale CLEAR 21 17 84 W9 29.94R WCI 11 MacArthur/ISP CLEAR 18 16 92 W6 29.92R WCI 10 Shirley CLEAR 20 17 88 W6 29.93R WCI 12 Mt Sinai Harb N/A N/A N/A N/A W9G17 N/A Westhampton CLEAR 14 12 92 W7 29.93R WCI 4 East Hampton FAIR 27 19 73 W10G16 29.89R WCI 17 Southold N/A 30 21 69 W12G24 N/A WCI 21 Montauk N/A 30 22 72 W17G29 29.88R WCI 18 $$ NYZ052-065-067-160900- HUDSON VALLEY CITY SKY/WX TMP DP RH WIND PRES REMARKS White Plains CLEAR 21 16 81 W8 29.89R WCI 11 Larchmont Harb N/A N/A N/A N/A SW13 N/A Croton On Huds N/A N/A N/A N/A W12 N/A Somers N/A 19 16 86 W3 N/A Brewster N/A 19 16 86 W2 N/A Newburgh MOCLDY 18 16 93 W9 29.90R WCI 6 Montgomery CLOUDY 13 10 88 SW6 29.89R WCI 4 Otisville N/A 18 14 86 SW2 N/A Warwick N/A 23 16 74 W7 N/A WCI 15 Suffern N/A 23 16 74 W8 N/A WCI 14 Poughkeepsie CLEAR 19 14 81 SW8 29.91R WCI 9 Albany MOCLDY 19 15 84 SE5 29.84R WCI 12 $$ NJZ001-105-106-008-010-013-015-019>022-104-160900- NEW JERSEY CITY SKY/WX TMP DP RH WIND PRES REMARKS Newark/Liberty PTCLDY 23 18 81 W12 29.96R WCI 12 Teterboro CLEAR 21 15 78 S6 29.95R WCI 13 Caldwell CLEAR 21 15 78 CALM 29.96R Somerville CLEAR 9 7 92 CALM 29.96R Linden FAIR 22 17 83 W7 29.97R WCI 13 Perth Amboy N/A N/A N/A N/A W9 N/A Sussex CLEAR 17 14 88 SW8 29.91R WCI 7 Andover NOT AVBL Trenton CLEAR 21 17 84 W5 29.99R FOG WCI 15 Millville CLEAR 22 21 96 W6 30.05R FOG WCI 14 Atlantic City CLEAR 25 21 85 W10 30.03R WCI 15 Wrightstown CLEAR 19 16 91 SW7 29.97R WCI 9 Toms River CLEAR 16 14 92 SW6 30.01R WCI 7 Belmar CLEAR 18 16 92 SW8 29.99R WCI 8 $$ PAZ047>061-062-071-160900- EASTERN PENNSYLVANIA CITY SKY/WX TMP DP RH WIND PRES REMARKS Philadelphia PTCLDY 26 18 71 W13 30.04R WCI 15 Allentown CLEAR 20 14 77 W7 29.97R WCI 11 Scranton CLOUDY 21 15 78 SW5 29.91R WCI 15 $$ CTZ002-004>006-009-010-012-RIZ004-006-007-MAZ004-011-015-160900- SOUTHERN NEW ENGLAND IN CT CITY SKY/WX TMP DP RH WIND PRES REMARKS Bradley INTL PTCLDY 18 14 84 S3 29.86R Hartford CLEAR 21 15 78 SW5 29.88R WCI 15 Danbury CLEAR 9 7 92 W5 29.89R WCI 1 Wtrbury/Oxford CLEAR 16 14 92 W5 29.85R WCI 9 Norwalk Harbor N/A N/A N/A N/A W12 N/A Bridgeport CLEAR 21 17 84 W8 29.91R WCI 11 Meriden CLEAR 19 14 81 W7 29.89R WCI 10 New Haven CLEAR 23 17 78 VRB6 29.91R WCI 16 Chester FAIR 19 16 86 W6 29.85S WCI 11 Groton CLEAR 22 17 81 W8 29.87R WCI 12 Wilimantic N/A 18 14 84 CALM 29.86R IN RI CITY SKY/WX TMP DP RH WIND PRES REMARKS Providence CLOUDY 22 18 85 W10 29.85R WCI 11 Block Island FLURRIES 26 21 81 W14G23 29.86R WCI 14 Westerly CLEAR 21 18 88 VRB3 29.87R IN MA CITY SKY/WX TMP DP RH WIND PRES REMARKS Boston MOCLDY 23 16 74 W13 29.82R WCI 11 Worcester PTCLDY 17 12 80 W14 29.75R WCI 3 Westfield CLEAR 18 14 84 CALM 29.84R Provincetown CLOUDY 28 22 78 NW17 29.79S WCI 16 Nantucket CLOUDY 28 26 92 NW16 29.81R WCI 16 $$ ANZ330-335-338-340-345-350-353-355-160900- COASTAL MARINE OBSERVATIONS STATION/POSITION TIME SKY/WX TEMP WIND PRES VSBY WAVE AIR SEA DIR/SP/G HT/PER (UTC) (F) (DEG/KT/KT) (MB) (MI) (FT/S) NY HARB ENTRANCE 0750 32 50 280/ 25/ 33 1013.4 3/ 4 20 S FIRE ISLAND 0650 34 51 290/ 27/ 33 1012.8 6/ 5 GREAT SOUTH BAY NOT AVBL HUDSON CANYON 0650 38 56 300/ 29/ 35 1012.5 8/ 6 KINGS POINT 0742 27 42 320/ 12/ 15 1014.7 EXECUTION ROCKS 0715 28 240/ 16/ 19 N/A WESTERN LI SOUND NOT AVBL CENTRAL LI SOUND 0645 30 280/ 17/ 23 N/A 4 ROBBINS REEF 0736 24 260/ 16/ 18 1014.7 $$ >>>>>>>>>>>>>>>>>>>>>>>>>>>> KEY <<<<<<<<<<<<<<<<<<<<<<<<<<< > < > SKY/WX - Sky Condition/Present Weather < > TMP - Temperature in Fahrenheit < > DP - Dew Point in Fahrenheit < > RH - Relative Humidity in Percent < > WIND - Direction (from) and Speed in MPH < > PRES - Mean Sea Level Pressure (inches of Hg) < > WCI - Wind Chill Index < > VSB - VISIBILITY IN MILES < > HX - HEAT INDEX < > TC - TEMPERATURE IN CELSIUS < > VRB - VARIABLE WIND DIRECTION < > < >>>>>>>>>>>>>>>>>>>>>>>>>>>> KEY <<<<<<<<<<<<<<<<<<<<<<<<<<<

USA.gov is the U.S. government's official web portal to all federal, state and local government web resources and services.